This demonstration page uses our WeatherBlox Daily Observations layout. Learn more.

Left ArrowRight Arrow

Hourly Observations for May 26, 2022

Temp ( °F °C ) Dew Point ( °F °C ) Humidity (%) Winds ( mph kmh ) Pressure ( in mb ) Visibility ( mi km ) Precip ( " mm )
12:53 am 00:53 Cloudy 70 21.1 66 18.9 87 87 E 8 13 30.07 1018 10 16 0.00 0.00
1:29 am 01:29 Cloudy 70 21.1 67 19.4 90 90 undefined N/A 30.05 1018 10 16 0.00 0.00
1:53 am 01:53 Cloudy 71 21.7 67 19.4 87 87 VRB 6 9 30.05 1018 10 16 0.00 0.00
2:08 am 02:08 Cloudy 71 21.7 67 19.4 87 87 SE 7 11 30.04 1017 10 16 0.00 0.00
2:36 am 02:36 Cloudy 71 21.7 67 19.4 87 87 SE 6 9 30.04 1017 10 16 0.00 0.00
2:46 am 02:46 Cloudy 71 21.7 67 19.4 87 87 SSE 7 11 30.04 1017 10 16 0.00 0.00
2:49 am 02:49 Cloudy 72 22 66 19 83 83 SE 6 9 30.04 1017 10 16 0.00 0.00
2:53 am 02:53 Cloudy 71 21.7 68 20 90 90 SE 6 9 30.04 1017 10 16 0.00 0.00
3:16 am 03:16 Cloudy 71 21.7 68 20 90 90 S 5 7 30.04 1017 10 16 0.00 0.00
3:46 am 03:46 Cloudy 71 21.7 68 20 90 90 SSE 6 9 30.03 1017 10 16 0.00 0.00
3:53 am 03:53 Cloudy 71 21.7 68 20 90 90 SSE 7 11 30.04 1017 10 16 0.00 0.00
4:42 am 04:42 Cloudy 71 21.7 68 20 90 90 S 6 9 30.03 1017 10 16 0.00 0.00
4:53 am 04:53 Cloudy with Light Rain 71 21.7 68 20 90 90 SSE 5 7 30.04 1017 10 16 0.00 0.00
5:24 am 05:24 Cloudy 71 21.7 69 20.6 94 94 VRB 5 7 30.04 1017 10 16 0.00 0.00
5:53 am 05:53 Cloudy 70 21.1 68 20 93 93 S 6 9 30.04 1017 10 16 0.00 0.00
6:53 am 06:53 Mostly Cloudy 70 21.1 67 19.4 90 90 S 6 9 30.04 1017 10 16 0.00 0.00
7:53 am 07:53 Mostly Cloudy 71 21.7 66 18.9 84 84 SSE 8 13 30.05 1018 10 16 0.00 0.00
8:53 am 08:53 Mostly Cloudy 72 22.2 66 18.9 82 82 S 9 15 30.04 1017 10 16 0.00 0.00
9:40 am 09:40 Cloudy 72 22.2 66 18.9 82 82 SSE 6 9 30.04 1017 10 16 0.00 0.00
9:51 am 09:51 Cloudy 73 23 66 19 78 78 S 9 15 30.04 1017 10 16 0.00 0.00
9:53 am 09:53 Cloudy 72 22.2 66 18.9 82 82 S 8 13 30.05 1018 10 16 0.00 0.00
10:02 am 10:02 Cloudy 72 22.2 66 18.9 82 82 VRB 7 11 30.04 1017 10 16 0.00 0.00
10:53 am 10:53 Cloudy 74 23.3 66 18.9 76 76 S 12 19 30.05 1018 10 16 0.00 0.00
11:37 am 11:37 Cloudy with Light Rain 74 23.3 68 20 82 82 S 8 13 30.03 1017 8 13 0.01 0.25
11:53 am 11:53 Mostly Cloudy 74 23.3 67 19.4 79 79 S 7 11 30.04 1017 10 16 0.01 0.25
12:40 pm 12:40 Mostly Cloudy 76 24.4 66 18.9 72 72 S 13 20 30.01 1016 10 16 0.00 0.00
12:53 pm 12:53 Cloudy 76 24.4 66 18.9 72 72 S 15 24 30.02 1017 10 16 0.00 0.00
1:07 pm 13:07 Cloudy with Light Rain 76 24.4 66 18.9 72 72 S 8 13 30.00 1016 10 16 0.00 0.00
1:53 pm 13:53 Cloudy 75 23.9 66 18.9 74 74 SSW 7 11 30.01 1016 10 16 0.00 0.00
2:01 pm 14:01 Cloudy with Light Rain 75 23.9 67 19.4 76 76 S 8 13 30.00 1016 10 16 0.00 0.00
2:10 pm 14:10 Cloudy with Light Rain 75 23.9 67 19.4 76 76 SSW 6 9 29.99 1015 10 16 0.00 0.00
2:36 pm 14:36 Cloudy with Nearby Thunderstorms 75 23.9 67 19.4 76 76 SW 9 15 29.99 1015 7 11 0.01 0.25
2:53 pm 14:53 Cloudy with Rain 73 22.8 69 20.6 87 87 SSW 10 17 30.00 1016 5 8 0.06 1.52
2:57 pm 14:57 Cloudy with Rain 73 22.8 69 20.6 87 87 WSW 10 17 30.00 1016 2 3 0.09 2.29
3:00 pm 15:00 Cloudy with Heavy Rain 71 21.7 68 20 90 90 SW 15 24 30.00 1016 1 1 0.23 5.84
3:04 pm 15:04 Cloudy with Heavy Rain 70 21.1 67 19.4 90 90 SW 12 19 30.00 1016 1 1 0.29 7.37
3:10 pm 15:10 Cloudy with Heavy Rain 69 20.6 66 18.9 90 90 SSW 15 24 30.01 1016 1 2 0.37 9.40
3:17 pm 15:17 Cloudy with Light Rain 69 20.6 67 19.4 93 93 SW 9 15 30.00 1016 3 4 0.40 10.16
3:25 pm 15:25 Cloudy with Rain 69 20.6 66 18.9 90 90 SW 10 17 30.00 1016 3 5 0.43 10.92
3:53 pm 15:53 Cloudy with Light Rain 71 21.7 68 20 90 90 SW 7 11 29.97 1015 10 16 0.43 10.92
4:05 pm 16:05 Cloudy 71 21.7 68 20 90 90 SW 8 13 29.96 1015 10 16 0.00 0.00
4:34 pm 16:34 Cloudy 71 21.7 67 19.4 87 87 SSW 13 20 29.95 1014 10 16 0.00 0.00
4:53 pm 16:53 Mostly Cloudy 72 22.2 68 20 87 87 SSW 10 17 29.94 1014 10 16 0.01 0.25
5:53 pm 17:53 Partly Cloudy 72 22.2 67 19.4 84 84 S 9 15 29.94 1014 10 16 0.00 0.00
6:10 pm 18:10 Mostly Cloudy 72 22.2 66 18.9 82 82 S 7 11 29.93 1014 10 16 0.00 0.00
6:33 pm 18:33 Mostly Cloudy 72 22.2 66 18.9 82 82 SW 7 11 29.94 1014 10 16 0.00 0.00
6:43 pm 18:43 Mostly Cloudy 72 22.2 65 18.3 79 79 SW 9 15 29.94 1014 10 16 0.00 0.00
6:53 pm 18:53 Partly Cloudy 72 22.2 65 18.3 79 79 SSW 6 9 29.94 1014 10 16 0.00 0.00
7:21 pm 19:21 Mostly Cloudy 71 21.7 65 18.3 81 81 S 6 9 29.93 1014 10 16 0.00 0.00
7:34 pm 19:34 Cloudy 71 21.7 65 18.3 81 81 SSW 5 7 29.93 1014 10 16 0.00 0.00
7:42 pm 19:42 Cloudy 71 21.7 66 18.9 84 84 S 6 9 29.92 1013 10 16 0.00 0.00
7:51 pm 19:51 Cloudy 72 22 66 19 83 83 S 5 7 29.92 1013 10 16 0.00 0.00
7:53 pm 19:53 Cloudy 71 21.7 66 18.9 84 84 SSW 6 9 29.93 1013 10 16 0.00 0.00
8:01 pm 20:01 Cloudy 71 21.7 66 18.9 84 84 SSW 5 7 29.92 1013 10 16 0.00 0.00
8:53 pm 20:53 Cloudy 71 21.7 66 18.9 84 84 S 6 9 29.94 1014 10 16 0.00 0.00
9:00 pm 21:00 Cloudy 71 21.7 66 18.9 84 84 S 6 9 29.93 1014 10 16 0.00 0.00
9:10 pm 21:10 Cloudy 71 21.7 66 18.9 84 84 S 6 9 29.92 1013 10 16 0.00 0.00
9:53 pm 21:53 Mostly Cloudy 70 21.1 65 18.3 84 84 S 7 11 29.93 1014 10 16 0.00 0.00
10:37 pm 22:37 Cloudy 70 21.1 65 18.3 84 84 S 9 15 29.93 1014 10 16 0.00 0.00
10:53 pm 22:53 Cloudy 70 21.1 65 18.3 84 84 S 6 9 29.93 1014 10 16 0.00 0.00
11:53 pm 23:53 Cloudy with Light Rain 69 20.6 66 18.9 90 90 S 6 9 29.93 1014 8 13 0.00 0.00

Powered by AerisWeather